This is the latest recevied weather packets stored in our database for station/object K4HOG. If no packets are shown the sender has not sent any weather packets the latest 10 day(s).
| Time | Temp. | Humidity | Pressure | Rain* | Wind** | Luminosity | Snow |
|---|---|---|---|---|---|---|---|
| 1777674231 | 30.56° C | 47% | 1009.3 hPa | 0 mm | - | 214 W/m² | - |
| 1777673927 | 30.56° C | 46% | 1009.4 hPa | 0 mm | - | 238 W/m² | - |
| 1777673624 | 30.56° C | 47% | 1009.3 hPa | 0 mm | - | 239 W/m² | - |
| 1777673322 | 30.56° C | 46% | 1009.2 hPa | 0 mm | - | 277 W/m² | - |
| 1777673019 | 30.56° C | 46% | 1009.4 hPa | 0 mm | - | 310 W/m² | - |
| 1777672715 | 31.11° C | 45% | 1009.3 hPa | 0 mm | - | 258 W/m² | - |
| 1777672411 | 31.11° C | 48% | 1009.2 hPa | 0 mm | - | 223 W/m² | - |
| 1777672107 | 31.67° C | 46% | 1009.3 hPa | 0 mm | - | 219 W/m² | - |
| 1777671803 | 31.67° C | 47% | 1009.2 hPa | 0 mm | - | 300 W/m² | - |
| 1777671499 | 31.67° C | 48% | 1009.3 hPa | 0 mm | - | 322 W/m² | - |
| 1777671195 | 31.67° C | 47% | 1009.4 hPa | 0 mm | - | 339 W/m² | - |
| 1777670891 | 31.67° C | 48% | 1009.5 hPa | 0 mm | - | 353 W/m² | - |
| 1777670588 | 31.67° C | 48% | 1009.2 hPa | 0 mm | - | 419 W/m² | - |
| 1777670285 | 31.67° C | 49% | 1009.3 hPa | 0 mm | - | 440 W/m² | - |
| 1777669982 | 32.22° C | 47% | 1009.4 hPa | 0 mm | - | 448 W/m² | - |
| 1777669679 | 32.22° C | 48% | 1009.4 hPa | 0 mm | - | 471 W/m² | - |
| 1777669375 | 31.67° C | 48% | 1009.3 hPa | 0 mm | - | 493 W/m² | - |
| 1777669072 | 31.67° C | 49% | 1009.4 hPa | 0 mm | - | 511 W/m² | - |
| 1777668769 | 31.67° C | 48% | 1009.2 hPa | 0 mm | - | 556 W/m² | - |
| 1777668466 | 31.67° C | 48% | 1009.2 hPa | 0 mm | - | 605 W/m² | - |
| 1777668163 | 31.11° C | 49% | 1009.1 hPa | 0 mm | - | 464 W/m² | - |
| 1777667859 | 30.56° C | 49% | 1009.2 hPa | 0 mm | - | 446 W/m² | - |
| 1777667557 | 31.11° C | 51% | 1009 hPa | 0 mm | - | 258 W/m² | - |
| 1777667253 | 31.11° C | 49% | 1009.1 hPa | 0 mm | - | 240 W/m² | - |
| 1777666950 | 30.56° C | 49% | 1009.1 hPa | 0 mm | - | 399 W/m² | - |
* Rain latest hour (hover to see other rain measurements)
** Current wind speed in m/s (hover to see current wind gust speed)